Location: Arbon
(43.0005°N, 0.7472°E)
Time: 12:07:31
(UTC+00:00)

USA 59 Rocket - Pass Details

Date: 22 April 2026
Orbit: 367 x 1664 km, 63.3° (Epoch: 15 May)

Event Time Altitude Azimuth Distance (km) Brightness Sun altitude
Rises 19:59:01 0° 321° (NW) 2,418 4.6 -12.7°
Reaches altitude 10° 20:00:52 10° 319° (NW) 1,643 3.5 -13.0°
Maximum altitude 20:04:26 69° 236° (SW) 608 0.1 -13.6°
Enters shadow 20:08:01 17° 155° (SSE) 1,703 1.8 -14.1°
